Location: Kitt Peak
(31.9639°N, 111.5992°W)
Time: 14:48:47
(UTC-07:00)

ISS - Visible Passes

Search period start: 20 August 2019 00:00
Search period end: 30 August 2019 00:00
Orbit: 410 x 420 km, 51.6° (Epoch: 21 August)

Date Brightness Start Highest point End Pass type
(mag) Time Alt. Az. Time Alt. Az. Time Alt. Az.
23 Aug -1.2 05:08:17 10° S 05:10:38 18° SE 05:12:59 10° E visible
25 Aug -3.5 05:06:42 13° SW 05:09:36 67° SE 05:12:54 10° NE visible
26 Aug -2.4 04:20:20 29° SSE 04:20:53 31° SE 04:23:53 10° ENE visible
27 Aug -0.6 03:33:52 12° E 03:33:52 12° E 03:34:21 10° E visible
27 Aug -2.8 05:06:46 18° W 05:08:44 33° NW 05:11:47 10° NNE visible
28 Aug -3.5 04:20:12 61° N 04:20:12 61° N 04:23:12 10° NE visible
29 Aug -0.7 03:33:32 16° ENE 03:33:32 16° ENE 03:34:22 10° NE visible
29 Aug -1.4 05:06:26 10° WNW 05:08:03 13° NNW 05:09:47 10° N visible
